Portada
METAR-TAF:

METAR-TAF

Aeroports :

Tri-Township Airport

Savanna, Illinois, Estats Units d'Amèrica

latitud: 42-02-45N, longitud: 090-06-28W, altitud: 188 m

Observació

L'informe es va fer fa 16 minuts, a les 18:17 UTC
Vent 8 kt del Sud-Oest
Temperatura 0°C
Humitat 93%
Pressió 1024 hPa
Visibilitat: 16.1 km
Núvols disperses a una alçada de 1800 ft

METAR: KSFY 101817Z AUTO 22008KT 10SM SCT018 00/M01 A3023 RMK AO2

Hora: 12:33 (18:33 UTC)


TAF: manca

Observacions i pronòstics meteorològics de més de 4000 aeroports (METAR i TAF).

Les estacions disponibles són els punts grocs i vermells al mapa.

Posi el ratolí al punt desitjat per veure el nom de l'estació.

Feu clic per veure les observacions i els pronòstics meteorològics.

Per canviar el mapa: feu clic els botons verds amb una creu de color negre per apropar; al botó verd amb un guió per allunyar la imatge; o en les fletxes verdes per a mapes adjacents.


METAR-TAF: